Location: Brooklyn Heights
(40.6954°N, 73.9938°W)
Time: 21:13:38
(UTC+00:00)

Daily predictions for brighter satellites

Satellite Brightness Start Highest point End
(mag) Time Altitude Azimuth Time Altitude Azimuth Time Altitude Azimuth
ADEOS Rocket 4.1 22:53:36 10° NNE 23:00:40 37° E 23:07:39 10° SSE
STARLINK-41 4.4 22:58:00 10° S 23:00:54 25° SE 23:03:48 10° ENE
YAOGAN 1 3.1 22:57:26 10° SE 23:01:26 38° ENE 23:05:27 10° N
Cosmos 2016 Rocket 4.2 22:59:00 10° SSE 23:04:43 45° E 23:10:29 10° NNE
STARLINK-33 3.8 23:02:23 10° SSW 23:05:24 35° SE 23:08:26 10° ENE
STARLINK-80 4.4 23:03:19 10° WSW 23:06:58 43° NNW 23:10:39 10° NE
STARLINK-66 3.7 23:04:05 10° SSW 23:07:08 37° SE 23:10:11 10° ENE
SKYMED 2 3.6 23:03:32 10° NNE 23:07:54 88° ESE 23:12:14 10° SSW
STARLINK-62 4.4 23:05:07 10° S 23:08:09 27° SE 23:11:09 10° ENE
STARLINK-46 3.1 23:06:02 10° WNW 23:08:17 46° SW 23:10:24 10° SSE
STARLINK-55 3.6 23:05:52 10° SSW 23:08:58 40° SE 23:12:03 10° ENE
STARLINK-34 4.3 23:07:06 10° SSW 23:10:09 27° SE 23:13:02 11° ENE
STARLINK-28 3.4 23:07:27 10° SSW 23:10:35 46° SE 23:13:42 10° ENE
Cosmos 2369 Rocket 3.7 23:07:48 10° SE 23:11:02 16° E 23:14:15 10° ENE
Cosmos 1633 Rocket 4.3 23:09:56 10° SE 23:13:09 21° E 23:16:23 10° NE
FengYun 1-2 T 4.5 23:10:30 10° S 23:16:10 80° WSW 23:21:49 10° NNW
Okean-O 3.4 23:14:10 10° S 23:18:31 58° W 23:22:55 10° NNW
Cosmos 2082 Rocket 2.2 23:13:47 10° NNW 23:19:27 86° ENE 23:25:07 10° SSE
Envisat 4.4 23:15:02 10° S 23:19:51 44° W 23:24:43 10° NNW
STARLINK-42 3.3 23:21:31 10° SSW 23:24:42 50° SE 23:27:07 16° ENE
Lacrosse 4 Rocket 1.3 23:21:40 10° SSW 23:25:46 69° ESE 23:30:01 10° NNE
ATLAS 5 CENTAUR R/B 4.1 23:20:19 10° NW 23:25:52 38° WSW 23:32:03 10° S
STARLINK-61 3.4 23:28:13 10° SW 23:32:06 75° SE 23:35:08 16° NE
HJ-1C 4.2 23:30:11 10° SE 23:33:04 28° ENE 23:35:58 10° NNE
Cosmos 1992 Rocket 4.2 23:27:58 10° SSW 23:33:12 78° WNW 23:38:28 10° NNE
Cosmos 2173 Rocket 4.4 23:27:03 10° SSW 23:33:22 73° W 23:39:47 10° N
Cosmos 2228 Rocket 4.1 23:30:16 10° NNW 23:34:41 53° W 23:39:06 10° S
CZ-2C R/B 4.4 23:32:20 13° ESE 23:35:50 22° ENE 23:40:11 10° NNE
Cosmos 1782 3.2 23:32:29 10° NNW 23:36:30 67° W 23:40:26 10° S
STARLINK-64 3.3 23:33:03 10° SW 23:36:35 59° SE 23:38:46 21° ENE
Cosmos 1833 Rocket 4.0 23:31:27 10° NW 23:36:46 43° WSW 23:42:02 10° S
Cosmos 1862 3.2 23:37:56 10° S 23:41:54 67° E 23:45:52 10° NNE
H-2A R/B 3.0 23:38:30 13° ESE 23:42:16 27° ENE 23:46:45 10° N
SL-4 R/B 2.8 23:39:25 10° NW 23:43:57 42° NNE 23:46:12 24° E
Cosmos 1354 Rocket 4.0 23:42:24 10° NNW 23:47:44 89° ENE 23:53:00 10° SSE
STARLINK-24 3.6 23:44:14 10° SW 23:48:10 57° SE 23:50:06 27° ENE
CSL-04 Rocket 3.9 23:44:43 10° S 23:50:17 78° WSW 23:55:49 10° NNW
NOSS 3-1 (C) 3.2 23:48:05 10° SSW 23:53:20 59° ESE 23:58:38 13° NE
Cosmos 1470 Rocket 4.2 23:50:17 10° SSE 23:54:05 31° E 23:55:22 26° ENE
Cosmos 1805 Rocket 4.4 23:50:57 10° SSW 23:55:14 52° W 23:59:32 10° N
STARLINK-81 3.6 23:51:42 10° SW 23:55:39 61° SE 23:57:12 34° ENE
